Time[GMT],salinity[psu](1m),sigma_t[kg/m^3](1m),conductivity[msiemens/cm](1m),temperature[C](1m)
2019-08-23 18:00,34.973,21.908,57.684,29.41
2019-08-23 19:00,35.027,21.934,57.806,29.45
2019-08-23 20:00,35.043,21.949,57.821,29.45
2019-08-23 21:00,35.072,21.977,57.845,29.43
2019-08-23 22:00,35.085,21.993,57.842,29.41
2019-08-23 23:00,35.085,22.001,57.819,29.39
2019-08-24 00:00,35.031,21.954,57.757,29.40
2019-08-24 01:00,35.065,21.992,57.768,29.37
2019-08-24 02:00,35.100,22.035,57.766,29.32
2019-08-24 03:00,35.167,22.099,57.820,29.28
2019-08-24 04:00,35.282,22.201,57.938,29.23
2019-08-24 05:00,35.308,22.214,57.997,29.25
2019-08-24 06:00,35.266,22.184,57.932,29.25
2019-08-24 07:00,35.252,22.161,57.952,29.28
2019-08-24 08:00,35.259,22.171,57.946,29.27
2019-08-24 09:00,35.265,22.183,57.934,29.25
2019-08-24 10:00,35.271,22.194,57.920,29.23
2019-08-24 11:00,35.275,22.202,57.909,29.21
2019-08-24 12:00,35.286,22.201,57.954,29.24
2019-08-24 13:00,35.003,21.958,57.637,29.33
2019-08-24 14:00,35.050,21.962,57.806,29.42
2019-08-24 15:00,35.079,21.960,57.927,29.49
2019-08-24 16:00,35.051,21.927,57.924,29.53
2019-08-24 17:00,35.093,21.936,58.054,29.60
2019-08-24 18:00,35.049,21.866,58.107,29.71
2019-08-24 19:00,35.073,21.864,58.205,29.76
2019-08-24 20:00,35.067,21.858,58.201,29.77
2019-08-24 21:00,35.090,21.867,58.262,29.79
2019-08-24 22:00,35.136,21.912,58.294,29.76
2019-08-24 23:00,35.095,21.891,58.203,29.73
2019-08-25 00:00,35.096,21.907,58.159,29.69
2019-08-25 01:00,35.053,21.875,58.095,29.69
2019-08-25 02:00,35.080,21.915,58.072,29.63
2019-08-25 03:00,35.164,21.999,58.126,29.57
2019-08-25 04:00,35.275,22.159,58.047,29.34
2019-08-25 05:00,35.304,22.198,58.034,29.29
2019-08-25 06:00,35.302,22.160,58.148,29.40
2019-08-25 07:00,35.287,22.164,58.074,29.35
2019-08-25 08:00,35.300,22.196,58.022,29.28
2019-08-25 09:00,35.289,22.199,57.971,29.25
2019-08-25 10:00,35.277,22.199,57.925,29.22
2019-08-25 11:00,35.284,22.212,57.913,29.20
2019-08-25 12:00,35.282,22.209,57.913,29.21
2019-08-25 13:00,34.869,21.843,57.489,29.37
2019-08-25 14:00,34.817,21.789,57.461,29.42
2019-08-25 15:00,34.836,21.785,57.547,29.47
2019-08-25 16:00,34.876,21.802,57.644,29.51
2019-08-25 17:00,34.781,21.705,57.586,29.59
2019-08-25 18:00,34.731,21.646,57.581,29.65
2019-08-25 19:00,34.749,21.651,57.635,29.68
2019-08-25 20:00,34.780,21.674,57.677,29.67
2019-08-25 21:00,34.815,21.695,57.746,29.69
2019-08-25 22:00,34.862,21.746,57.768,29.64
2019-08-25 23:00,34.890,21.784,57.754,29.59
2019-08-26 00:00,34.868,21.776,57.694,29.57
2019-08-26 01:00,34.813,21.739,57.602,29.56
2019-08-26 02:00,34.813,21.752,57.563,29.52
2019-08-26 03:00,34.853,21.798,57.570,29.47
2019-08-26 04:00,34.959,21.905,57.637,29.39
2019-08-26 05:00,34.965,21.894,57.697,29.44
2019-08-26 06:00,34.965,21.896,57.687,29.43
2019-08-26 07:00,34.983,21.921,57.679,29.39
2019-08-26 08:00,34.993,21.934,57.676,29.38
2019-08-26 09:00,34.990,21.936,57.656,29.36
2019-08-26 10:00,34.966,21.922,57.611,29.35
2019-08-26 11:00,34.836,21.828,57.409,29.34
2019-08-26 12:00,34.820,21.813,57.396,29.35
2019-08-26 13:00,34.767,21.756,57.373,29.40
2019-08-26 14:00,34.776,21.732,57.482,29.50
2019-08-26 15:00,34.809,21.729,57.617,29.58
2019-08-26 16:00,34.809,21.690,57.738,29.69
2019-08-26 17:00,34.774,21.646,57.746,29.75
2019-08-26 18:00,34.725,21.607,57.678,29.75
2019-08-26 19:00,34.729,21.601,57.713,29.78
2019-08-26 20:00,34.740,21.602,57.751,29.80
2019-08-26 21:00,34.756,21.620,57.760,29.78
2019-08-26 22:00,34.780,21.648,57.762,29.75
2019-08-26 23:00,34.805,21.679,57.760,29.72
2019-08-27 00:00,34.833,21.715,57.754,29.67
2019-08-27 01:00,34.833,21.733,57.698,29.62
2019-08-27 02:00,34.819,21.732,57.650,29.59
2019-08-27 03:00,34.801,21.734,57.569,29.54
2019-08-27 04:00,34.859,21.810,57.552,29.45
2019-08-27 05:00,34.972,21.923,57.630,29.36
2019-08-27 06:00,34.898,21.862,57.540,29.38
2019-08-27 07:00,34.894,21.873,57.487,29.34
2019-08-27 08:00,34.987,21.959,57.574,29.29
2019-08-27 09:00,35.040,22.019,57.587,29.23
2019-08-27 10:00,34.907,21.899,57.458,29.29
2019-08-27 11:00,34.878,21.843,57.520,29.39
2019-08-27 12:00,34.792,21.757,57.466,29.46
2019-08-27 13:00,34.772,21.718,57.509,29.53
2019-08-27 14:00,34.752,21.682,57.548,29.59
2019-08-27 15:00,34.758,21.664,57.629,29.66
2019-08-27 16:00,34.781,21.647,57.766,29.76
2019-08-27 17:00,34.827,21.653,57.923,29.84
2019-08-27 18:00,34.933,21.744,58.048,29.81
2019-08-27 19:00,34.993,21.795,58.115,29.79
2019-08-27 20:00,34.981,21.768,58.153,29.84
2019-08-27 21:00,35.019,21.826,58.115,29.76
2019-08-27 22:00,35.093,21.916,58.116,29.65
2019-08-27 23:00,35.116,22.005,57.922,29.44
2019-08-28 00:00,35.169,22.053,57.974,29.42
2019-08-28 01:00,35.137,22.052,57.855,29.35
2019-08-28 02:00,35.147,22.066,57.850,29.33
2019-08-28 03:00,35.048,22.012,57.641,29.27
2019-08-28 04:00,35.146,22.088,57.776,29.26
2019-08-28 05:00,35.287,22.164,58.078,29.35
2019-08-28 06:00,34.950,21.953,57.451,29.23
2019-08-28 07:00,35.061,22.049,57.575,29.19
2019-08-28 08:00,35.139,22.091,57.739,29.24
2019-08-28 09:00,35.192,22.122,57.846,29.27
2019-08-28 10:00,35.242,22.154,57.937,29.28
2019-08-28 11:00,35.246,22.131,58.022,29.36
2019-08-28 12:00,35.245,22.126,58.036,29.37
2019-08-28 13:00,35.151,22.068,57.856,29.33
2019-08-28 14:00,35.116,22.043,57.804,29.33
2019-08-28 15:00,34.932,21.879,57.617,29.41
2019-08-28 16:00,34.858,21.806,57.563,29.46
2019-08-28 17:00,34.791,21.780,57.389,29.39
2019-08-28 18:00,34.881,21.859,57.486,29.35
2019-08-28 19:00,35.089,22.010,57.805,29.37
2019-08-28 20:00,34.956,21.933,57.538,29.30
2019-08-28 21:00,34.892,21.925,57.318,29.18
2019-08-28 22:00,34.933,21.955,57.379,29.18
2019-08-28 23:00,34.918,21.922,57.426,29.25
2019-08-29 00:00,34.964,21.948,57.522,29.27
2019-08-29 01:00,35.025,21.990,57.621,29.28
2019-08-29 02:00,35.035,22.020,57.563,29.22
2019-08-29 03:00,35.005,21.997,57.521,29.22
2019-08-29 04:00,34.925,21.938,57.400,29.21
2019-08-29 05:00,34.954,21.949,57.478,29.25
2019-08-29 06:00,34.958,21.967,57.439,29.20
2019-08-29 07:00,34.919,21.933,57.397,29.22
2019-08-29 08:00,34.730,21.781,57.153,29.25
2019-08-29 09:00,34.710,21.756,57.153,29.28
2019-08-29 10:00,34.697,21.739,57.159,29.30
2019-08-29 11:00,34.673,21.722,57.119,29.29
2019-08-29 12:00,34.640,21.703,57.051,29.28
2019-08-29 13:00,34.643,21.697,57.083,29.30
2019-08-29 14:00,34.658,21.687,57.170,29.36
2019-08-29 15:00,34.684,21.701,57.230,29.38
2019-08-29 16:00,34.694,21.679,57.336,29.47
2019-08-29 17:00,34.712,21.686,57.382,29.49
2019-08-29 18:00,34.729,21.690,57.432,29.51
2019-08-29 19:00,34.754,21.726,57.418,29.46
2019-08-29 20:00,34.788,21.780,57.377,29.38
2019-08-29 21:00,34.269,21.448,56.439,29.21
2019-08-29 22:00,33.873,21.216,55.657,29.01
2019-08-29 23:00,34.411,21.561,56.625,29.19
2019-08-30 00:00,33.989,21.330,55.743,28.93
2019-08-30 01:00,34.149,21.438,56.015,28.97
2019-08-30 02:00,34.400,21.579,56.527,29.11
2019-08-30 03:00,34.451,21.625,56.579,29.09
2019-08-30 04:00,34.479,21.655,56.588,29.06
2019-08-30 05:00,34.510,21.681,56.624,29.05
2019-08-30 06:00,34.518,21.685,56.645,29.06
2019-08-30 07:00,34.609,21.742,56.810,29.09
2019-08-30 08:00,34.662,21.760,56.960,29.16
2019-08-30 09:00,34.586,21.744,56.717,29.03
2019-08-30 10:00,34.547,21.734,56.602,28.98
2019-08-30 11:00,34.545,21.738,56.580,28.96
2019-08-30 12:00,34.487,21.706,56.463,28.93
2019-08-30 13:00,34.489,21.681,56.546,29.00
2019-08-30 14:00,34.454,21.621,56.600,29.11
2019-08-30 15:00,34.506,21.635,56.756,29.18
2019-08-30 16:00,34.463,21.552,56.852,29.33
2019-08-30 17:00,34.333,21.419,56.770,29.44
2019-08-30 18:00,34.382,21.453,56.852,29.45
2019-08-30 19:00,34.439,21.472,57.009,29.52
2019-08-30 20:00,34.562,21.565,57.188,29.51
2019-08-30 21:00,34.398,21.421,57.016,29.58
2019-08-30 22:00,34.357,21.418,56.867,29.49
2019-08-30 23:00,34.401,21.474,56.858,29.43
2019-08-31 00:00,34.456,21.529,56.899,29.39
2019-08-31 01:00,34.488,21.570,56.891,29.33
2019-08-31 02:00,34.518,21.604,56.899,29.30
2019-08-31 03:00,34.545,21.637,56.896,29.26
2019-08-31 04:00,34.540,21.645,56.853,29.23
2019-08-31 05:00,34.562,21.670,56.862,29.20
2019-08-31 06:00,34.581,21.688,56.876,29.19
2019-08-31 07:00,34.677,21.776,56.963,29.14
2019-08-31 08:00,34.609,21.745,56.802,29.08
2019-08-31 09:00,34.625,21.719,56.944,29.20
2019-08-31 10:00,34.675,21.747,57.049,29.23
2019-08-31 11:00,34.701,21.782,57.036,29.18
2019-08-31 12:00,34.735,21.814,57.068,29.16
2019-08-31 13:00,34.724,21.800,57.069,29.18
2019-08-31 14:00,34.708,21.765,57.120,29.25
2019-08-31 15:00,34.716,21.736,57.241,29.35
2019-08-31 16:00,34.721,21.709,57.344,29.44
2019-08-31 17:00,34.724,21.703,57.374,29.47
2019-08-31 18:00,34.724,21.656,57.523,29.61
2019-08-31 19:00,34.739,21.659,57.572,29.63
2019-08-31 20:00,34.748,21.684,57.527,29.58
2019-08-31 21:00,34.756,21.722,57.436,29.48
2019-08-31 22:00,34.803,21.757,57.507,29.48
2019-08-31 23:00,34.819,21.792,57.459,29.41
2019-09-01 00:00,34.863,21.862,57.406,29.30
2019-09-01 01:00,34.892,21.874,57.479,29.33
2019-09-01 02:00,34.895,21.894,57.424,29.28
2019-09-01 03:00,34.915,21.921,57.418,29.24
2019-09-01 04:00,34.894,21.940,57.278,29.14
2019-09-01 05:00,34.886,21.943,57.237,29.11
2019-09-01 06:00,34.895,21.958,57.225,29.09
2019-09-01 07:00,34.919,21.989,57.219,29.05
2019-09-01 08:00,34.955,22.010,57.287,29.07
2019-09-01 09:00,34.965,22.031,57.261,29.03
2019-09-01 10:00,34.983,22.021,57.362,29.10
2019-09-01 11:00,35.022,22.058,57.394,29.07
2019-09-01 12:00,35.067,22.082,57.488,29.10
2019-09-01 13:00,35.097,22.096,57.561,29.13
2019-09-01 14:00,35.138,22.091,57.735,29.24
2019-09-01 15:00,35.001,21.926,57.732,29.42
2019-09-01 16:00,34.918,21.780,57.873,29.67
2019-09-01 17:00,34.924,21.758,57.965,29.74
2019-09-01 18:00,34.936,21.733,58.094,29.85
2019-09-01 19:00,34.932,21.726,58.097,29.86
2019-09-01 20:00,34.911,21.716,58.048,29.84
2019-09-01 21:00,34.936,21.724,58.117,29.87
2019-09-01 22:00,35.030,21.943,57.790,29.43
2019-09-01 23:00,35.058,21.957,57.852,29.45
2019-09-02 00:00,35.093,21.984,57.902,29.45
2019-09-02 01:00,35.079,21.983,57.849,29.42
2019-09-02 02:00,34.939,21.884,57.628,29.41
2019-09-02 03:00,35.021,21.940,57.766,29.42
2019-09-02 04:00,35.060,21.986,57.771,29.38
2019-09-02 05:00,35.073,22.022,57.704,29.30
2019-09-02 06:00,35.010,21.989,57.567,29.25
2019-09-02 07:00,35.024,22.009,57.556,29.22
2019-09-02 08:00,35.082,22.056,57.633,29.22
2019-09-02 09:00,35.118,22.102,57.624,29.16
2019-09-02 10:00,35.146,22.131,57.640,29.14
2019-09-02 11:00,35.171,22.128,57.745,29.20
2019-09-02 12:00,35.187,22.126,57.810,29.24
2019-09-02 13:00,35.008,21.955,57.667,29.35
2019-09-02 14:00,34.958,21.909,57.620,29.37
2019-09-02 15:00,34.938,21.842,57.755,29.53
2019-09-02 16:00,34.872,21.759,57.766,29.63
2019-09-02 17:00,34.816,21.659,57.864,29.80
2019-09-02 18:00,34.837,21.648,57.980,29.88
2019-09-02 19:00,34.837,21.615,58.081,29.97
2019-09-02 20:00,34.849,21.622,58.105,29.98
2019-09-02 21:00,34.896,21.719,57.980,29.80
2019-09-02 22:00,34.989,21.853,57.918,29.61
2019-09-02 23:00,34.968,21.855,57.827,29.56
2019-09-03 00:00,34.897,21.764,57.842,29.67
2019-09-03 01:00,34.865,21.759,57.739,29.61
2019-09-03 02:00,34.862,21.765,57.706,29.59
2019-09-03 03:00,34.832,21.740,57.669,29.59
2019-09-03 04:00,34.744,21.631,57.677,29.72
2019-09-03 05:00,34.691,21.601,57.569,29.69
2019-09-03 06:00,34.731,21.625,57.646,29.71
2019-09-03 07:00,34.745,21.651,57.616,29.66
2019-09-03 08:00,34.780,21.705,57.585,29.59
2019-09-03 09:00,34.800,21.744,57.536,29.51
2019-09-03 10:00,34.920,21.878,57.574,29.38
2019-09-03 11:00,34.858,21.845,57.444,29.34
2019-09-03 12:00,34.747,21.684,57.524,29.57
2019-09-03 13:00,34.753,21.678,57.566,29.61
2019-09-03 14:00,34.730,21.633,57.614,29.68
2019-09-03 15:00,34.754,21.623,57.739,29.77
2019-09-03 16:00,34.771,21.620,57.814,29.81
2019-09-03 17:00,34.818,21.653,57.891,29.82
2019-09-03 18:00,34.831,21.638,57.989,29.90
2019-09-03 19:00,34.832,21.629,58.017,29.92
2019-09-03 20:00,34.838,21.647,57.986,29.88
2019-09-03 21:00,34.874,21.685,58.002,29.85
2019-09-03 22:00,34.941,21.775,57.978,29.73
2019-09-03 23:00,35.119,21.983,58.003,29.51
2019-09-04 00:00,35.191,22.071,58.000,29.41
2019-09-04 01:00,35.202,22.066,58.062,29.45
2019-09-04 02:00,35.135,22.006,57.996,29.48
2019-09-04 03:00,35.204,22.110,57.930,29.33
2019-09-04 04:00,35.243,22.167,57.894,29.24
2019-09-04 05:00,35.249,22.180,57.881,29.22
2019-09-04 06:00,35.265,22.202,57.868,29.19
2019-09-04 07:00,35.274,22.218,57.857,29.16
2019-09-04 08:00,35.287,22.232,57.861,29.15
2019-09-04 09:00,35.291,22.238,57.855,29.14
2019-09-04 10:00,35.296,22.251,57.834,29.11
2019-09-04 11:00,35.296,22.255,57.821,29.10
2019-09-04 12:00,35.340,22.299,57.847,29.07
2019-09-04 13:00,35.377,22.332,57.886,29.05
2019-09-04 14:00,35.388,22.325,57.951,29.10
2019-09-04 15:00,35.397,22.302,58.059,29.19
2019-09-04 16:00,35.394,22.289,58.089,29.22
2019-09-04 17:00,35.391,22.259,58.174,29.30
2019-09-04 18:00,35.263,22.089,58.222,29.52
2019-09-04 19:00,35.252,22.092,58.172,29.49
2019-09-04 20:00,35.134,21.903,58.315,29.78
2019-09-04 21:00,35.056,21.858,58.159,29.74
2019-09-04 22:00,35.178,21.998,58.182,29.60
2019-09-04 23:00,35.162,21.994,58.138,29.58
2019-09-05 00:00,35.203,22.059,58.085,29.47
2019-09-05 01:00,35.237,22.095,58.102,29.44
2019-09-05 02:00,35.217,22.109,57.984,29.36
2019-09-05 03:00,35.248,22.175,57.894,29.23
2019-09-05 04:00,35.250,22.145,57.993,29.32
2019-09-05 05:00,35.252,22.157,57.963,29.29
2019-09-05 06:00,35.251,22.172,57.911,29.25
2019-09-05 07:00,35.252,22.194,57.843,29.18
2019-09-05 08:00,35.262,22.223,57.791,29.12
2019-09-05 09:00,35.117,22.142,57.493,29.04
2019-09-05 10:00,35.145,22.162,57.535,29.04
2019-09-05 11:00,35.158,22.178,57.535,29.02
2019-09-05 12:00,35.150,22.166,57.541,29.04
2019-09-05 13:00,35.174,22.180,57.591,29.05
2019-09-05 14:00,35.183,22.164,57.674,29.12
2019-09-05 15:00,35.006,21.986,57.562,29.25
2019-09-05 16:00,35.023,21.984,57.633,29.30
2019-09-05 17:00,35.056,21.991,57.738,29.35
2019-09-05 18:00,35.056,21.977,57.783,29.39
2019-09-05 19:00,35.029,21.932,57.818,29.46
2019-09-05 20:00,34.975,21.895,57.729,29.45
2019-09-05 21:00,34.970,21.907,57.674,29.41
2019-09-05 22:00,34.991,21.939,57.652,29.36
2019-09-05 23:00,35.022,21.980,57.640,29.31
2019-09-06 00:00,35.043,22.012,57.622,29.26
2019-09-06 01:00,35.038,22.026,57.560,29.21
2019-09-06 02:00,35.090,22.062,57.642,29.21
2019-09-06 03:00,35.135,22.095,57.712,29.22
2019-09-06 04:00,35.158,22.119,57.724,29.20
2019-09-06 05:00,35.189,22.145,57.761,29.19
2019-09-06 06:00,35.211,22.165,57.780,29.18
2019-09-06 07:00,35.208,22.169,57.756,29.16
2019-09-06 08:00,35.202,22.175,57.715,29.13
2019-09-06 09:00,35.074,22.111,57.425,29.03
2019-09-06 10:00,34.843,21.829,57.433,29.36
2019-09-06 11:00,34.862,21.836,57.482,29.38
2019-09-06 12:00,34.890,21.838,57.585,29.43
2019-09-06 13:00,34.927,21.850,57.687,29.48
2019-09-06 14:00,34.906,21.780,57.831,29.64
2019-09-06 15:00,34.895,21.729,57.949,29.77
2019-09-06 16:00,35.025,21.821,58.155,29.78
2019-09-06 17:00,35.070,21.895,58.095,29.67
2019-09-06 18:00,34.996,21.772,58.196,29.86
2019-09-06 19:00,35.016,21.801,58.182,29.82
2019-09-06 20:00,35.041,21.829,58.191,29.80
2019-09-06 21:00,35.091,21.955,57.989,29.54
2019-09-06 22:00,35.063,21.987,57.776,29.38
2019-09-06 23:00,35.084,22.014,57.770,29.34
2019-09-07 00:00,35.091,22.035,57.733,29.30
2019-09-07 01:00,34.997,21.814,58.067,29.74
2019-09-07 02:00,34.931,21.749,58.022,29.79
2019-09-07 03:00,34.945,21.800,57.914,29.67
2019-09-07 04:00,34.948,21.814,57.884,29.64
2019-09-07 05:00,34.912,21.774,57.871,29.67
2019-09-07 06:00,34.880,21.743,57.843,29.69
2019-09-07 07:00,34.865,21.745,57.784,29.66
2019-09-07 08:00,34.862,21.757,57.735,29.61
2019-09-07 09:00,34.861,21.767,57.699,29.58
2019-09-07 10:00,34.880,21.795,57.683,29.54
2019-09-07 11:00,34.897,21.823,57.660,29.50
2019-09-07 12:00,34.873,21.797,57.647,29.52
2019-09-07 13:00,34.630,21.627,57.252,29.48
2019-09-07 14:00,34.745,21.642,57.645,29.69
2019-09-07 15:00,34.794,21.663,57.767,29.74
2019-09-07 16:00,34.800,21.668,57.777,29.74
2019-09-07 17:00,34.836,21.665,57.921,29.83
2019-09-07 18:00,34.760,21.545,58.006,30.01
2019-09-07 19:00,34.870,21.630,58.162,30.00
2019-09-07 20:00,34.893,21.641,58.214,30.02
2019-09-07 21:00,34.881,21.659,58.112,29.94
2019-09-07 22:00,34.890,21.731,57.924,29.75
2019-09-07 23:00,34.947,21.832,57.822,29.58
2019-09-08 00:00,35.017,21.896,57.891,29.55
2019-09-08 01:00,35.051,21.954,57.835,29.45
2019-09-08 02:00,35.084,22.001,57.814,29.38
2019-09-08 03:00,35.094,22.016,57.806,29.36
2019-09-08 04:00,35.049,21.973,57.769,29.39
2019-09-08 05:00,35.071,21.995,57.783,29.37
2019-09-08 06:00,35.055,21.959,57.835,29.44
2019-09-08 07:00,35.069,21.988,57.798,29.39
2019-09-08 08:00,35.071,21.985,57.814,29.40
2019-09-08 09:00,35.074,21.995,57.796,29.38
2019-09-08 10:00,35.071,21.991,57.797,29.38
2019-09-08 11:00,35.060,21.974,57.807,29.41
2019-09-08 12:00,35.046,21.950,57.828,29.45
2019-09-08 13:00,35.036,21.903,57.940,29.57
2019-09-08 14:00,35.064,21.866,58.165,29.74
2019-09-08 15:00,34.830,21.586,58.145,30.04
2019-09-08 16:00,35.009,21.821,58.095,29.75
2019-09-08 17:00,34.981,21.687,58.408,30.08
2019-09-08 18:00,35.032,21.778,58.319,29.93
2019-09-08 19:00,34.898,21.164,59.706,31.41
2019-09-08 20:00,34.926,21.365,59.197,30.89
2019-09-08 21:00,34.937,21.462,58.940,30.64
2019-09-08 22:00,34.949,21.521,58.804,30.49
2019-09-08 23:00,34.957,21.635,58.478,30.18
2019-09-09 00:00,34.997,21.747,58.278,29.94
2019-09-09 01:00,35.001,21.795,58.146,29.81
2019-09-09 02:00,35.018,21.834,58.088,29.73
2019-09-09 03:00,34.936,21.794,57.902,29.67
2019-09-09 04:00,35.018,21.877,57.951,29.60
2019-09-09 05:00,35.035,21.907,57.924,29.55
2019-09-09 06:00,35.053,21.931,57.917,29.52
2019-09-09 07:00,35.047,21.943,57.855,29.47
2019-09-09 08:00,35.039,21.912,57.925,29.55
2019-09-09 09:00,35.044,21.929,57.888,29.51
2019-09-09 10:00,35.044,21.925,57.900,29.52
2019-09-09 11:00,34.589,21.662,56.986,29.29
2019-09-09 12:00,34.973,21.852,57.858,29.58
2019-09-09 13:00,34.997,21.846,57.967,29.65
2019-09-09 14:00,35.018,21.824,58.119,29.76
2019-09-09 15:00,34.974,21.724,58.263,29.96
2019-09-09 16:00,35.014,21.695,58.510,30.13
2019-09-09 17:00,35.048,21.692,58.650,30.21
2019-09-09 18:00,35.053,21.695,58.658,30.22
2019-09-09 19:00,35.065,21.747,58.539,30.09
2019-09-09 20:00,35.054,21.711,58.613,30.17
2019-09-09 21:00,35.050,21.741,58.500,30.07
2019-09-09 22:00,35.069,21.826,58.309,29.87
2019-09-09 23:00,35.038,21.803,58.264,29.87
2019-09-10 00:00,34.998,21.739,58.308,29.96
2019-09-10 01:00,34.992,21.744,58.270,29.94
2019-09-10 02:00,34.975,21.734,58.236,29.93
2019-09-10 03:00,34.983,21.761,58.184,29.87
2019-09-10 04:00,34.994,21.786,58.146,29.82
2019-09-10 05:00,35.005,21.811,58.108,29.77
2019-09-10 06:00,35.019,21.852,58.032,29.68
2019-09-10 07:00,34.985,21.811,58.032,29.72
2019-09-10 08:00,34.979,21.811,58.011,29.71
2019-09-10 09:00,34.969,21.806,57.989,29.71
2019-09-10 10:00,34.981,21.833,57.949,29.65
2019-09-10 11:00,34.992,21.845,57.951,29.64
2019-09-10 12:00,34.993,21.857,57.923,29.61
2019-09-10 13:00,34.990,21.835,57.980,29.67
2019-09-10 14:00,34.970,21.784,58.060,29.77
2019-09-10 15:00,34.968,21.734,58.211,29.91
2019-09-10 16:00,34.980,21.715,58.316,30.00
2019-09-10 17:00,34.978,21.693,58.377,30.06
2019-09-10 18:00,34.981,21.692,58.391,30.07
2019-09-10 19:00,34.987,21.663,58.506,30.16
2019-09-10 20:00,34.940,21.611,58.490,30.21
2019-09-10 21:00,34.942,21.620,58.468,30.19
2019-09-10 22:00,34.947,21.648,58.400,30.12
2019-09-10 23:00,34.961,21.686,58.333,30.04
2019-09-11 00:00,34.971,21.710,58.297,29.99
2019-09-11 01:00,34.986,21.744,58.248,29.92
2019-09-11 02:00,34.990,21.756,58.227,29.90
2019-09-11 03:00,34.991,21.766,58.198,29.87
2019-09-11 04:00,34.995,21.782,58.164,29.83
2019-09-11 05:00,34.991,21.780,58.153,29.83
2019-09-11 06:00,35.014,21.826,58.096,29.74
2019-09-11 07:00,35.012,21.845,58.030,29.68
2019-09-11 08:00,35.005,21.847,57.998,29.66
2019-09-11 09:00,35.036,21.873,58.034,29.65
2019-09-11 10:00,35.080,21.906,58.099,29.65
2019-09-11 11:00,35.097,21.926,58.101,29.63
2019-09-11 12:00,35.096,21.918,58.120,29.65
2019-09-11 13:00,35.093,21.905,58.149,29.68
2019-09-11 14:00,35.092,21.876,58.237,29.77
2019-09-11 15:00,35.086,21.844,58.316,29.85
2019-09-11 16:00,35.095,21.798,58.498,30.01
2019-09-11 17:00,35.113,21.784,58.607,30.08
2019-09-11 18:00,35.121,21.794,58.610,30.08
2019-09-11 19:00,35.135,21.824,58.567,30.02
2019-09-11 20:00,35.171,21.837,58.665,30.06
2019-09-11 21:00,35.181,21.862,58.626,30.01
2019-09-11 22:00,35.196,21.897,58.572,29.94
2019-09-11 23:00,35.199,21.925,58.495,29.86
2019-09-12 00:00,35.228,21.940,58.559,29.88
2019-09-12 01:00,35.237,21.950,58.562,29.87
2019-09-12 02:00,35.232,21.957,58.522,29.84
2019-09-12 03:00,35.230,21.957,58.513,29.84
2019-09-12 04:00,35.209,21.932,58.513,29.86
2019-09-12 05:00,35.171,21.920,58.404,29.81
2019-09-12 06:00,35.176,21.936,58.370,29.78
2019-09-12 07:00,35.166,21.958,58.265,29.69
2019-09-12 08:00,35.184,21.978,58.271,29.67
2019-09-12 09:00,35.168,21.966,58.246,29.67
2019-09-12 10:00,35.204,21.988,58.314,29.69
2019-09-12 11:00,35.237,21.988,58.444,29.76
2019-09-12 12:00,35.188,21.939,58.410,29.80
2019-09-12 13:00,35.104,21.837,58.407,29.91
2019-09-12 14:00,35.089,21.759,58.595,30.11
2019-09-12 15:00,35.018,21.621,58.754,30.35
2019-09-12 16:00,34.993,21.562,58.844,30.47
2019-09-12 17:00,34.982,21.523,58.922,30.56
2019-09-12 18:00,35.004,21.531,58.981,30.58
2019-09-12 19:00,35.040,21.568,59.003,30.55
2019-09-12 20:00,35.044,21.547,59.083,30.62
2019-09-12 21:00,35.058,21.571,59.062,30.59
2019-09-12 22:00,35.072,21.608,59.001,30.51
2019-09-12 23:00,35.074,21.636,58.923,30.43
2019-09-13 00:00,35.042,21.618,58.857,30.42
2019-09-13 01:00,35.036,21.642,58.759,30.33
2019-09-13 02:00,35.030,21.645,58.725,30.31
2019-09-13 03:00,35.049,21.674,58.710,30.27
2019-09-13 04:00,35.029,21.674,58.630,30.22
2019-09-13 05:00,35.046,21.714,58.570,30.14
2019-09-13 06:00,35.039,21.727,58.504,30.09
2019-09-13 07:00,35.065,21.758,58.507,30.06
2019-09-13 08:00,35.098,21.789,58.536,30.04
2019-09-13 09:00,35.090,21.787,58.511,30.03
2019-09-13 10:00,35.064,21.760,58.497,30.05
2019-09-13 11:00,35.034,21.767,58.358,29.96
2019-09-13 12:00,35.000,21.740,58.314,29.97
2019-09-13 13:00,34.979,21.685,58.404,30.08
2019-09-13 14:00,34.911,21.637,58.294,30.07
2019-09-13 15:00,34.875,21.535,58.475,30.29
2019-09-13 16:00,34.859,21.527,58.442,30.28
2019-09-13 17:00,34.810,21.483,58.389,30.30
2019-09-13 18:00,34.801,21.468,58.404,30.33
2019-09-13 19:00,34.828,21.490,58.437,30.32
2019-09-13 20:00,34.872,21.527,58.488,30.31
2019-09-13 21:00,34.809,21.478,58.403,30.31
2019-09-13 22:00,34.908,21.550,58.557,30.32
2019-09-13 23:00,34.866,21.532,58.452,30.28
2019-09-14 00:00,34.836,21.521,58.371,30.25
2019-09-14 01:00,34.807,21.506,58.306,30.23
2019-09-14 02:00,34.812,21.523,58.273,30.19
2019-09-14 03:00,34.825,21.542,58.265,30.16
2019-09-14 04:00,34.846,21.571,58.254,30.12
2019-09-14 05:00,34.869,21.607,58.228,30.07
2019-09-14 06:00,34.912,21.657,58.238,30.02
2019-09-14 07:00,34.956,21.707,58.249,29.97
2019-09-14 08:00,34.971,21.736,58.215,29.91
2019-09-14 09:00,34.975,21.745,58.206,29.90
2019-09-14 10:00,35.003,21.777,58.208,29.86
2019-09-14 11:00,35.051,21.827,58.236,29.82
2019-09-14 12:00,35.134,21.926,58.245,29.72
2019-09-14 13:00,35.164,21.941,58.310,29.74
2019-09-14 14:00,35.154,21.912,58.363,29.80
2019-09-14 15:00,35.135,21.871,58.419,29.88
2019-09-14 16:00,35.115,21.816,58.516,30.00
2019-09-14 17:00,35.106,21.785,58.578,30.07
2019-09-14 18:00,35.102,21.752,58.667,30.16
2019-09-14 19:00,35.111,21.749,58.713,30.19
2019-09-14 20:00,35.136,21.764,58.758,30.19